Regional Weather Roundup
Issued by NWS

Home | Current Version | Previous Version | Graphics & Text | Print | Product List | Glossary On
Versions: 1 2 3 4 5 6 7 8 9 10 11 12 13 14 15 16 17 18 19 20 21 22 23 24 25 26 27 28 29 30 31 32 33 34 35 36 37 38 39 40 41 42 43 44 45 46 47 48 49 50
000
ASUS45 KBOI 040810
RWRID

IDAHO REGIONAL WEATHER ROUNDUP
NATIONAL WEATHER SERVICE BOISE ID
200 AM MDT TUE AUG 04 2015

NOTE: "FAIR" INDICATES FEW OR NO CLOUDS BELOW 12000 FEET
WITH NO SIGNIFICANT WEATHER AND/OR OBSTRUCTIONS TO VISIBILITY

IDZ012-014-040900-
SOUTHWEST IDAHO


CITY           SKY/WX    TMP DP  RH WIND       PRES   REMARKS
BOISE          LGT RAIN  72  51  47 NW29G39   29.98R
CALDWELL       MOCLDY    68  48  49 NW18G32     N/A
MOUNTAIN HOME  PTCLDY    71  46  40 NW17G31   29.95R
$$

IDZ016-017-040900-
SOUTHCENTRAL IDAHO


CITY           SKY/WX    TMP DP  RH WIND       PRES   REMARKS
BURLEY         PTCLDY    67  50  54 S13       29.99S
JEROME         CLEAR     59  51  75 N9        29.99R
TWIN FALLS     CLEAR     74  46  36 S14       29.95S
$$

IDZ019>023-040900-
SOUTHEAST IDAHO


CITY           SKY/WX    TMP DP  RH WIND       PRES   REMARKS
IDAHO FALLS    CLOUDY    63  55  75 SE5       30.09S
POCATELLO      CLEAR     61  57  87 E5        30.05S
REXBURG        LGT RAIN  61  55  81 CALM      30.11R
$$

IDZ006-010-011-018-031-032-040900-
CENTRAL IDAHO MOUNTAINS


CITY           SKY/WX    TMP DP  RH WIND       PRES   REMARKS
MCCALL         CLEAR     56  46  69 CALM      30.05R
HAILEY         PTCLDY    59  46  63 NW8       30.11S
STANLEY          N/A     48  39  71 SE5       30.16S
SALMON         CLOUDY    64  46  52 CALM      29.95R
CHALLIS        MOCLDY    62  45  53 CALM      30.04R
$$

IDZ002-004-006-007-026-040900-
NORTHERN IDAHO


CITY           SKY/WX    TMP DP  RH WIND       PRES   REMARKS
LEWISTON       MOCLDY    78  48  34 CALM      29.85R
LOWELL           N/A     65  52  62 CALM      29.90R
COEUR D`ALENE  CLOUDY    72  46  40 E3        29.86S
MULLAN PASS    CLOUDY    60  40  47 CALM      30.08R
$$


USA.gov is the U.S. government's official web portal to all federal, state and local government web resources and services.